Change the Weather History Date:

Tuesday, October 11, 2011

  Actual Average Record
Temperature  
Mean Temperature 59 °F -  
Max Temperature 73 °F 56 °F 83 °F (1976)
Min Temperature 46 °F 35 °F 19 °F (2006)
Degree Days  
Heating Degree Days 6    
Growing Degree Days 9 (Base 50)    
Moisture  
Dew Point 49 °F    
Average Humidity 75    
Maximum Humidity 100    
Minimum Humidity 44    
Precipitation  
Precipitation 0.01 in - - ()
Sea Level Pressure  
Sea Level Pressure 29.78 in    
Wind  
Wind Speed 10 mph (SSE)    
Max Wind Speed 20 mph    
Max Gust Speed 26 mph    
Visibility 9 miles    
Events      
Averages and records for this station are not official NWS values.
T = Trace of Precipitation, MM = Missing Value Source: NWS Daily Summary

Daily Weather History Graph

Daily Weather History Graph

Search for Another Location

Airport or City:

Trip Planner

Search our weather history database for the weather conditions in past years. The results will help you decide how hot, cold, wet, or windy it might be!

Date:

Astronomy

Oct. 11, 2011 Rise Set
Actual Time 7:32 AM CDT 6:40 PM CDT
Civil Twilight 7:01 AM CDT 7:11 PM CDT
Nautical Twilight 6:26 AM CDT 7:46 PM CDT
Astronomical Twilight 5:51 AM CDT 8:21 PM CDT
Moon 6:09 PM CDT (10/11) 7:13 AM CDT (10/11)
Length of Visible Light 12h 09m
Length of Day
11h 08m
Full, 100% of the Moon is Illuminated
Oct 11
Full
Oct 11
Full
Oct 19
Last Quarter
Oct 26
New
Nov 2
First Quarter

Hourly Weather History & Observations

Time (CDT) Temp. Windchill Dew Point Humidity Pressure Visibility Wind Dir Wind Speed Gust Speed Precip Events Conditions
12:08 AM 51.8 °F - 51.8 °F 100% 29.82 in 5.0 mi SE 8.1 mph - N/A   Scattered Clouds
12:19 AM 51.8 °F - 51.8 °F 100% 29.82 in 5.0 mi SSE 9.2 mph - N/A   Mostly Cloudy
12:53 AM 54.0 °F - 52.0 °F 93% 29.81 in 6.0 mi SSE 12.7 mph - N/A   Overcast
1:13 AM 53.6 °F - 51.8 °F 94% 29.80 in 6.0 mi SSE 11.5 mph - N/A   Scattered Clouds
1:53 AM 54.0 °F - 52.0 °F 93% 29.81 in 6.0 mi SSE 10.4 mph - N/A   Partly Cloudy
2:53 AM 53.1 °F - 51.1 °F 93% 29.80 in 10.0 mi South 10.4 mph - N/A   Clear
3:53 AM 51.1 °F - 48.9 °F 92% 29.79 in 10.0 mi South 8.1 mph - N/A   Clear
4:53 AM 50.0 °F - 48.2 °F 94% 29.79 in 10.0 mi South 8.1 mph - N/A   Clear
5:53 AM 48.0 °F - 46.0 °F 93% 29.81 in 10.0 mi SSE 6.9 mph - 0.01 in   Clear
6:53 AM 46.4 °F 43.5 °F 44.6 °F 93% 29.80 in 8.0 mi SSE 5.8 mph - N/A   Clear
7:53 AM 46.4 °F 43.5 °F 44.6 °F 93% 29.80 in 5.0 mi SE 5.8 mph - N/A   Clear
10:53 AM 59.0 °F - 51.1 °F 75% 29.81 in 10.0 mi SSE 9.2 mph - N/A   Clear
11:53 AM 63.0 °F - 51.1 °F 65% 29.79 in 10.0 mi SSE 9.2 mph - N/A   Clear
12:53 PM 66.9 °F - 51.1 °F 57% 29.78 in 10.0 mi SSE 11.5 mph - N/A   Clear
1:53 PM 70.0 °F - 52.0 °F 53% 29.76 in 10.0 mi South 13.8 mph 26.5 mph N/A   Clear
2:53 PM 72.0 °F - 51.1 °F 48% 29.75 in 10.0 mi South 18.4 mph 24.2 mph N/A   Partly Cloudy
3:53 PM 72.0 °F - 50.0 °F 46% 29.74 in 10.0 mi South 12.7 mph - N/A   Partly Cloudy
4:53 PM 72.0 °F - 48.9 °F 44% 29.74 in 10.0 mi SSE 19.6 mph 24.2 mph N/A   Scattered Clouds
5:53 PM 69.1 °F - 48.9 °F 49% 29.74 in 10.0 mi South 10.4 mph - N/A   Clear
6:53 PM 66.0 °F - 48.9 °F 54% 29.75 in 10.0 mi SSE 11.5 mph - N/A   Clear
7:53 PM 63.0 °F - 48.9 °F 60% 29.76 in 10.0 mi SSE 9.2 mph - N/A   Clear
8:53 PM 59.0 °F - 48.9 °F 69% 29.76 in 10.0 mi SE 8.1 mph - N/A   Clear
9:53 PM 57.9 °F - 48.0 °F 70% 29.76 in 10.0 mi SSE 9.2 mph - N/A   Clear
10:53 PM 55.9 °F - 46.9 °F 72% 29.75 in 10.0 mi SSE 9.2 mph - N/A   Clear
11:53 PM 55.9 °F - 46.9 °F 72% 29.74 in 10.0 mi SSE 9.2 mph - N/A   Clear